Date,TemperatureHighF,TemperatureAvgF,TemperatureLowF,DewpointHighF,DewpointAvgF,DewpointLowF,HumidityHigh,HumidityAvg,HumidityLow,PressureMaxIn,PressureMinIn,WindSpeedMaxMPH,WindSpeedAvgMPH,GustSpeedMaxMPH,PrecipitationSumIn
2013-11-1,49,45,41,43,40,36,89,83,75,29.75,29.43,11,1,11,0.00
2013-11-2,51,42,36,37,33,26,87,71,50,30.14,29.75,10,1,10,0.00
2013-11-3,54,42,31,37,30,24,83,65,42,30.26,30.12,10,1,10,0.00
2013-11-4,56,49,41,43,38,32,74,65,52,30.16,30.01,12,2,12,0.00
2013-11-5,53,52,50,52,47,43,96,84,73,30.20,29.95,13,1,13,0.08
2013-11-6,55,39,33,54,30,22,96,72,60,30.18,29.73,10,1,10,0.33
2013-11-7,44,34,26,31,25,19,77,71,56,30.23,30.18,9,0,9,0.00
2013-11-8,50,39,26,33,27,20,79,64,40,30.27,29.81,14,2,14,0.00
2013-11-9,59,49,38,38,34,23,72,56,41,30.14,29.79,17,4,17,0.00
2013-11-10,53,41,29,31,27,21,73,58,36,30.34,30.14,8,1,8,0.00
2013-11-11,45,35,20,33,25,8,79,66,59,30.53,30.06,16,1,16,0.02
2013-11-12,37,24,16,16,7,-6,60,49,19,30.70,30.53,8,0,8,0.02
2013-11-13,46,29,15,16,9,-1,67,47,19,30.55,30.09,12,2,12,0.06
2013-11-14,51,40,27,27,22,13,63,49,35,30.09,29.88,10,2,10,0.00
2013-11-15,59,43,33,32,27,21,76,55,30,29.94,29.85,9,1,9,0.00
2013-11-16,57,50,37,55,47,30,96,90,76,29.85,29.48,20,5,20,0.04
2013-11-17,68,53,41,62,48,33,96,83,63,29.78,29.13,21,5,21,0.39
2013-11-18,49,38,29,33,24,17,75,59,35,30.25,29.78,18,4,18,0.00
2013-11-19,46,33,24,27,21,15,76,63,44,30.32,30.18,12,2,12,0.00
2013-11-20,39,35,32,36,29,25,91,77,66,30.20,30.03,16,4,16,0.23
2013-11-21,46,42,38,40,38,36,91,85,78,30.22,30.05,7,0,7,0.00
2013-11-22,44,34,22,36,24,11,86,70,45,30.46,30.22,17,2,17,0.06
2013-11-23,33,20,11,11,-1,-19,66,44,19,30.69,30.42,14,2,14,0.00
2013-11-24,33,18,7,3,-5,-15,57,38,19,30.67,30.28,7,1,7,0.00
2013-11-25,32,26,16,24,16,2,79,66,50,30.29,30.03,10,2,10,0.00
2013-11-26,38,26,12,24,12,-9,78,58,19,30.21,30.02,13,2,13,0.00
2013-11-27,40,20,8,8,-3,-14,53,38,19,30.27,30.17,8,1,8,0.00
2013-11-28,45,25,17,15,6,-6,55,44,19,30.47,30.11,8,1,8,0.00
2013-11-29,38,25,15,17,9,2,62,51,31,30.57,30.31,7,1,7,0.00
2013-11-30,56,36,24,30,22,15,75,59,35,30.31,30.01,11,1,11,0.00